• In Hungary
  • List of Countries
  • For 7 days
  • Water Temperature
  • Satellite Maps
  • Weather Map
  • News
  • Weather Widgets
  • user-avatar
    Login

    Hourly Weather Ronse

    Today, 20 June, Wednesday

    Time Temperature Precipitation Wind Pressure Humidity
    00:00 +15°C° 0 mm 2 mps 763 mmHg 94%
    01:00 +15°C° 0 mm 2 mps 763 mmHg 94%
    02:00 +15°C° 0 mm 2 mps 763 mmHg 95%
    03:00 +15°C° 0 mm 2 mps 763 mmHg 95%
    04:00 +16°C° 0 mm 2 mps 762 mmHg 93%
    05:00 +17°C° 0 mm 2 mps 762 mmHg 91%
    06:00 +17°C° 0 mm 3 mps 762 mmHg 89%
    07:00 +19°C° 0 mm 3 mps 762 mmHg 85%
    08:00 +20°C° 0 mm 3 mps 762 mmHg 80%
    09:00 +22°C° 0 mm 3 mps 762 mmHg 75%
    10:00 +23°C° 0 mm 4 mps 762 mmHg 73%
    11:00 +23°C° 0 mm 4 mps 762 mmHg 72%
    12:00 +25°C° 0 mm 4 mps 761 mmHg 70%
    13:00 +25°C° 0 mm 4 mps 761 mmHg 69%
    14:00 +26°C° 0 mm 4 mps 761 mmHg 68%
    15:00 +26°C° 0 mm 4 mps 761 mmHg 68%
    16:00 +25°C° 0 mm 4 mps 761 mmHg 70%
    17:00 +25°C° 0 mm 4 mps 760 mmHg 73%
    18:00 +23°C° 0 mm 4 mps 760 mmHg 76%
    19:00 +21°C° 0 mm 3 mps 760 mmHg 81%
    20:00 +19°C° 0 mm 3 mps 760 mmHg 86%
    21:00 +17°C° 0 mm 3 mps 760 mmHg 91%
    22:00 +17°C° 0 mm 3 mps 760 mmHg 92%
    23:00 +16°C° 0 mm 3 mps 760 mmHg 93%

    Tomorrow, 21 June, Thursday

    Time Temperature Precipitation Wind Pressure Humidity
    00:00 +16°C° 0 mm 3 mps 760 mmHg 94%
    01:00 +16°C° 0 mm 3 mps 760 mmHg 94%
    02:00 +15°C° 0 mm 4 mps 759 mmHg 93%
    03:00 +15°C° 0 mm 4 mps 759 mmHg 92%
    04:00 +14°C° 0 mm 4 mps 760 mmHg 87%
    05:00 +14°C° 0 mm 5 mps 760 mmHg 81%
    06:00 +14°C° 0 mm 6 mps 760 mmHg 76%
    07:00 +14°C° 0 mm 6 mps 761 mmHg 71%
    08:00 +15°C° 0 mm 7 mps 761 mmHg 66%
    09:00 +15°C° 0 mm 7 mps 762 mmHg 61%
    10:00 +16°C° 0 mm 7 mps 762 mmHg 58%
    11:00 +16°C° 0 mm 7 mps 762 mmHg 56%
    12:00 +16°C° 0 mm 7 mps 763 mmHg 54%
    13:00 +16°C° 0 mm 7 mps 763 mmHg 55%
    14:00 +16°C° 0 mm 7 mps 763 mmHg 56%
    15:00 +16°C° 0 mm 7 mps 764 mmHg 57%
    16:00 +15°C° 0 mm 6 mps 764 mmHg 60%
    17:00 +14°C° 0 mm 6 mps 764 mmHg 63%
    18:00 +14°C° 0 mm 6 mps 764 mmHg 66%
    19:00 +12°C° 0 mm 5 mps 765 mmHg 69%
    20:00 +11°C° 0 mm 4 mps 765 mmHg 71%
    21:00 +10°C° 0 mm 3 mps 766 mmHg 73%
    22:00 +9°C° 0 mm 3 mps 766 mmHg 74%
    23:00 +9°C° 0 mm 2 mps 766 mmHg 74%

    Day after tomorrow, 22 June, Friday

    Time Temperature Precipitation Wind Pressure Humidity
    00:00 +9°C° 0 mm 2 mps 766 mmHg 74%
    01:00 +9°C° 0 mm 2 mps 766 mmHg 76%
    02:00 +9°C° 0 mm 3 mps 766 mmHg 78%
    03:00 +9°C° 0 mm 3 mps 765 mmHg 79%
    04:00 +10°C° 0 mm 4 mps 766 mmHg 78%
    05:00 +11°C° 0 mm 4 mps 766 mmHg 78%
    06:00 +12°C° 0 mm 5 mps 766 mmHg 77%
    07:00 +14°C° 0 mm 5 mps 766 mmHg 72%
    08:00 +15°C° 0 mm 5 mps 766 mmHg 67%
    09:00 +16°C° 0 mm 6 mps 766 mmHg 63%
    10:00 +16°C° 0 mm 6 mps 766 mmHg 62%
    11:00 +16°C° 0 mm 6 mps 766 mmHg 61%
    12:00 +17°C° 0 mm 6 mps 766 mmHg 60%
    13:00 +16°C° 0 mm 6 mps 766 mmHg 61%
    14:00 +16°C° 0 mm 6 mps 766 mmHg 62%
    15:00 +16°C° 0 mm 6 mps 766 mmHg 63%
    16:00 +15°C° 0 mm 6 mps 766 mmHg 66%
    17:00 +15°C° 0 mm 5 mps 766 mmHg 69%
    18:00 +14°C° 0 mm 5 mps 766 mmHg 71%
    19:00 +12°C° 0 mm 4 mps 766 mmHg 76%
    20:00 +11°C° 0 mm 4 mps 766 mmHg 81%
    21:00 +10°C° 0 mm 3 mps 767 mmHg 86%
    22:00 +9°C° 0 mm 2 mps 767 mmHg 87%
    23:00 +9°C° 0 mm 2 mps 767 mmHg 89%

    23 June, Saturday

    Time Temperature Precipitation Wind Pressure Humidity
    00:00 +8°C° 0 mm 2 mps 766 mmHg 90%
    01:00 +8°C° 0 mm 2 mps 766 mmHg 91%
    02:00 +8°C° 0 mm 2 mps 766 mmHg 91%
    03:00 +8°C° 0 mm 2 mps 766 mmHg 91%
    04:00 +9°C° 0 mm 2 mps 766 mmHg 87%
    05:00 +10°C° 0 mm 2 mps 766 mmHg 83%
    06:00 +13°C° 0 mm 2 mps 766 mmHg 79%
    07:00 +14°C° 0 mm 2 mps 766 mmHg 75%
    08:00 +14°C° 0 mm 3 mps 766 mmHg 70%
    09:00 +17°C° 0 mm 3 mps 766 mmHg 65%
    10:00 +17°C° 0 mm 3 mps 766 mmHg 62%
    11:00 +18°C° 0 mm 3 mps 766 mmHg 60%
    12:00 +19°C° 0 mm 3 mps 766 mmHg 58%
    13:00 +19°C° 0 mm 3 mps 766 mmHg 58%
    14:00 +19°C° 0 mm 3 mps 766 mmHg 59%
    15:00 +20°C° 0 mm 3 mps 765 mmHg 59%
    16:00 +19°C° 0 mm 3 mps 765 mmHg 62%
    17:00 +19°C° 0 mm 3 mps 765 mmHg 65%
    18:00 +19°C° 0 mm 3 mps 765 mmHg 68%
    19:00 +17°C° 0 mm 2 mps 765 mmHg 74%
    20:00 +15°C° 0 mm 2 mps 765 mmHg 80%
    21:00 +13°C° 0 mm 2 mps 765 mmHg 85%
    22:00 +13°C° 0 mm 2 mps 765 mmHg 87%
    23:00 +12°C° 0 mm 1 mps 765 mmHg 89%

    24 June, Sunday

    Time Temperature Precipitation Wind Pressure Humidity
    00:00 +11°C° 0 mm 1 mps 765 mmHg 90%
    01:00 +11°C° 0 mm 1 mps 765 mmHg 90%
    02:00 +11°C° 0 mm 1 mps 765 mmHg 91%
    03:00 +11°C° 0 mm 1 mps 765 mmHg 91%
    04:00 +12°C° 0 mm 1 mps 765 mmHg 88%
    05:00 +13°C° 0 mm 1 mps 765 mmHg 84%
    06:00 +14°C° 0 mm 1 mps 765 mmHg 81%
    07:00 +15°C° 0 mm 1 mps 765 mmHg 74%
    08:00 +18°C° 0 mm 1 mps 765 mmHg 67%
    09:00 +19°C° 0 mm 1 mps 765 mmHg 59%
    10:00 +19°C° 0 mm 2 mps 765 mmHg 57%
    11:00 +20°C° 0 mm 2 mps 765 mmHg 55%
    12:00 +21°C° 0 mm 2 mps 765 mmHg 53%
    13:00 +23°C° 0 mm 2 mps 765 mmHg 53%
    14:00 +22°C° 0 mm 3 mps 765 mmHg 54%
    15:00 +22°C° 0 mm 3 mps 764 mmHg 54%
    16:00 +22°C° 0 mm 3 mps 764 mmHg 58%
    17:00 +21°C° 0 mm 3 mps 764 mmHg 61%
    18:00 +20°C° 0 mm 3 mps 764 mmHg 65%
    19:00 +18°C° 0 mm 3 mps 764 mmHg 68%
    20:00 +17°C° 0 mm 3 mps 765 mmHg 71%
    21:00 +15°C° 0 mm 2 mps 765 mmHg 74%
    22:00 +14°C° 0 mm 2 mps 765 mmHg 74%
    23:00 +14°C° 0 mm 2 mps 765 mmHg 75%

    25 June, Monday

    Time Temperature Precipitation Wind Pressure Humidity
    00:00 +14°C° 0 mm 2 mps 765 mmHg 76%
    01:00 +13°C° 0 mm 2 mps 765 mmHg 79%
    02:00 +13°C° 0 mm 2 mps 765 mmHg 82%
    03:00 +13°C° 0 mm 2 mps 765 mmHg 85%
    04:00 +14°C° 0 mm 2 mps 765 mmHg 83%
    05:00 +15°C° 0 mm 2 mps 765 mmHg 80%
    06:00 +16°C° 0 mm 2 mps 765 mmHg 78%
    07:00 +18°C° 0 mm 2 mps 765 mmHg 73%
    08:00 +19°C° 0 mm 2 mps 765 mmHg 68%
    09:00 +21°C° 0 mm 3 mps 765 mmHg 62%
    10:00 +22°C° 0 mm 3 mps 765 mmHg 60%
    11:00 +24°C° 0 mm 3 mps 765 mmHg 57%
    12:00 +25°C° 0 mm 3 mps 765 mmHg 55%
    13:00 +25°C° 0 mm 3 mps 764 mmHg 55%
    14:00 +26°C° 0 mm 4 mps 764 mmHg 55%
    15:00 +26°C° 0 mm 4 mps 764 mmHg 55%
    16:00 +26°C° 0 mm 4 mps 764 mmHg 58%
    17:00 +25°C° 0 mm 3 mps 764 mmHg 61%
    18:00 +24°C° 0 mm 3 mps 764 mmHg 65%
    19:00 +22°C° 0 mm 3 mps 764 mmHg 66%
    20:00 +20°C° 0 mm 3 mps 764 mmHg 68%
    21:00 +18°C° 0 mm 3 mps 764 mmHg 70%
    22:00 +18°C° 0 mm 3 mps 764 mmHg 71%
    23:00 +17°C° 0 mm 3 mps 764 mmHg 73%
    Show more